Flag for Finland Weather past 2 weeks in Joensuu, Finland

Now
75 °F

Passing clouds.


Feels Like: 78 °F
Forecast: 64 / 79 °F
Wind: 8 mph from North

Location: Joensuu Airport

Current Time: Jul 22, 2014 at 11:08:38 AM

Latest Report: Jul 22, 2014 at 10:20 AM


Visibility: N/A

Pressure: 30.18 "Hg

Humidity: 54%

Dew point: 57 °F

Location of JoensuuLocation

Historic Weather in Joensuu — Graph

°F

Joensuu temperature yesterday

Maximum temperature yesterday: 75 °F (at 5:50 PM)
Minimum temperature yesterday: 54 °F (at 3:50 AM)
Average temperature yesterday: 67 °F

Past Weeks' High & Low Weather Summary

 TemperatureHumidityPressure
High82 °F (Jul 14, 2:50 PM)100% (Jul 15, 2:20 AM)30.33 "Hg (Jul 15, 2:20 AM)
Low45 °F (Jul 10, 4:20 AM)22% (Jul 20, 3:20 PM)29.92 "Hg (Jul 14, 6:50 PM)
Average67 °F65%30.12 "Hg
* Reported Jul 7 9:20 AM — Jul 22 9:50 AM, Joensuu, Weather by CustomWeather, © 2014

Note: Actual official high and low records may vary slightly from our data, if they occured in-between our weather recording intervals... More about our weather records

Advertising

Joensuu weather history for previous 24 hours

 ConditionsComfort  
Time TempWeatherWind HumidityBarometerVisibility
9:50 AM
Jul 22
75 °FPassing clouds.9 mph54%30.18 "HgN/A
9:20 AM75 °FPassing clouds.8 mph50%30.18 "HgN/A
8:50 AM73 °FPassing clouds.7 mph53%30.18 "HgN/A
8:20 AM70 °FPassing clouds.6 mph60%30.18 "HgN/A
7:50 AM70 °FPassing clouds.7 mph60%30.18 "HgN/A
7:20 AM68 °FSunny.6 mph64%30.18 "Hg10 mi
6:50 AM66 °FSunny.5 mph73%30.18 "Hg10 mi
6:20 AM63 °FSunny.3 mph83%30.21 "Hg10 mi
5:50 AM61 °FSunny.6 mph88%30.18 "Hg10 mi
5:20 AM59 °FSunny.5 mph94%30.21 "Hg10 mi
4:50 AM57 °FClear.5 mph100%30.18 "Hg10 mi
4:20 AM57 °FClear.3 mph100%30.21 "Hg10 mi
3:50 AM57 °FClear.3 mph94%30.21 "Hg10 mi
3:20 AM55 °FClear.3 mph100%30.21 "Hg10 mi
2:50 AM55 °FClear.2 mph94%30.21 "Hg10 mi
2:20 AM57 °FClear.2 mph88%30.21 "Hg10 mi
1:50 AM57 °FClear.2 mph88%30.21 "Hg10 mi
1:20 AM57 °FClear.2 mph94%30.21 "Hg10 mi
12:50 AM57 °FClear.2 mph94%30.21 "Hg10 mi
12:20 AM59 °FClear.2 mph82%30.18 "Hg10 mi
11:50 PM
Jul 21
59 °FClear.1 mph82%30.18 "Hg10 mi
11:20 PM61 °FSunny.No wind77%30.18 "Hg10 mi
10:50 PM64 °FSunny.No wind68%30.18 "Hg10 mi
10:20 PM68 °FSunny.2 mph64%30.18 "Hg10 mi
9:50 PM68 °FSunny.2 mph60%30.18 "Hg10 mi
9:20 PM72 °FSunny.2 mph50%30.18 "Hg10 mi
8:50 PM73 °FSunny.2 mph41%30.18 "Hg10 mi
8:20 PM73 °FSunny.3 mph41%30.15 "Hg10 mi
7:50 PM73 °FPassing clouds.5 mph41%30.15 "HgN/A
7:20 PM75 °FPassing clouds.7 mph39%30.15 "HgN/A
6:50 PM75 °FPassing clouds.6 mph39%30.15 "HgN/A
6:20 PM75 °FPassing clouds.7 mph41%30.15 "HgN/A
5:50 PM75 °FPassing clouds.5 mph41%30.15 "HgN/A
5:20 PM73 °FPassing clouds.9 mph47%30.15 "HgN/A
4:50 PM73 °FPassing clouds.8 mph47%30.15 "HgN/A
4:20 PM72 °FPassing clouds.7 mph53%30.15 "HgN/A
3:50 PM72 °FPassing clouds.9 mph50%30.15 "HgN/A
3:20 PM73 °FPassing clouds.7 mph47%30.15 "HgN/A
2:50 PM73 °FScattered clouds.7 mph47%30.18 "HgN/A
2:20 PM73 °FPassing clouds.13 mph47%30.18 "HgN/A
1:50 PM70 °FScattered clouds.12 mph53%30.18 "HgN/A
1:20 PM72 °FPartly sunny.12 mph50%30.18 "HgN/A
12:50 PM70 °FPassing clouds.10 mph53%30.18 "HgN/A
12:20 PM70 °FPassing clouds.14 mph53%30.18 "HgN/A
11:50 AM68 °FPassing clouds.12 mph56%30.18 "HgN/A
11:20 AM70 °FPassing clouds.14 mph53%30.18 "HgN/A
Weather by CustomWeather, © 2014

See weather overviewHow to use our weather pages